Погода в Тюбуке

Россия / Челябинская область     56°02′53″N   60°56′42″E
темп.,
°C
ветер,
м/с
пор.,
м/с
влажн.,
%
обл.,
%
осадки,
мм/ч
давл.,
гПа
погр.,
м
9 декабря, чт
чт923:00−8ю4691100 0.9 1037169
02:00−8ю488798 0.1 1036167
05:00−7ю3684100 0.1 1035118
08:00−5ююз3579100 0.0 103480
11:00−5ююз3580100 0.0 103579
14:00−4ю3581100 0.0 103493
17:00−7ю3687100 0.0 103483
20:00−9ю4984100 0.0 1032147
10 декабря, пт
пт1023:00−7ю41076100 0.0 1031185
02:00−6ю51365100 0.0 1030248
05:00−6ю51264100 0.0 1028229
08:00−8ю4972100 0.0 1027157
11:00−7ююз3677100 0.0 1027138
14:00−5ю2378100 0.0 102655
17:00−6юз2283100 0.0 102724
20:00−6зсз2386100 0.0 102844
11 декабря, сб
сб1123:00−7сз389470 0.0 1029145
02:00−9ссз48906 0.0 1031164
05:00−11с49875 0.0 1033182
08:00−13ссз37905 0.0 1034124
11:00−12ссз38855 0.0 1036178
14:00−9ссз35803 0.0 1035143
17:00−12зсз33865 0.0 103631
20:00−12сз34895 0.0 103748
12 декабря, вс
вс1223:00−13сз34915 0.0 103859
02:00−13зсз34895 0.0 103948
05:00−12зсз34885 0.0 103949
08:00−13зсз34875 0.0 104047
11:00−11зсз37795 0.0 1040127
14:00−7зсз38722 0.0 1039175
17:00−7зсз51169100 0.0 1040231
20:00−8зсз613645 0.0 1040277
13 декабря, пн
пн1323:00−7зсз6136225 0.0 1039309
02:00−8зсз614635 0.0 1039296
05:00−7зсз6156177 0.0 1038333
08:00−7зсз6156324 0.0 1038338
11:00−7зсз615675 0.0 1037387
14:00−6зсз615655 0.0 1036462
17:00−7зсз6146897 0.0 1036405
20:00−8зсз6137066 0.0 1036402